Regional Weather Roundup
Issued by NWS Austin/San Antonio, TX

Home | Current Version | Previous Version | Text Only | Print | Product List | Glossary On
Versions: 1 2 3 4 5 6 7 8 9 10 11 12 13 14 15 16 17 18 19 20 21 22 23 24 25 26 27 28 29 30 31 32 33 34 35 36 37 38 39 40 41 42 43 44 45 46 47 48 49 50
000
ASUS44 KEWX 200601
RWREWX
SOUTH TEXAS REGIONAL WEATHER ROUNDUP
NATIONAL WEATHER SERVICE AUSTIN/SAN ANTONIO TX
100 AM CDT FRI OCT 20 2017

NOTE: "FAIR" INDICATED FEW OR NO CLOUDS BELOW 12,000 FEET WITH NO
SIGNIFICANT WEATHER AND/OR OBSTRUCTIONS TO VISIBILITY.

* - THESE STATIONS ARE NOT NWS OR FAA STATIONS...AND ARE NOT SUBJECT
    TO NWS AND FAA QUALITY CONTROL.

TXZ171-172-183>190-200700-
TEXAS HILL COUNTRY AND EDWARDS PLATEAU

CITY           SKY/WX    TMP DP  RH WIND       PRES   REMARKS
JUNCTION       FAIR      63  57  81 CALM      30.07F
6HR MIN TEMP:  63; 6HR MAX TEMP:  76;

*LLANO         FAIR      63  59  88 CALM      30.11S
BURNET         FAIR      68  60  75 SE9       30.11S
6HR MIN TEMP:  68; 6HR MAX TEMP:  75;

*HORSESHOE BAY MOCLDY    66  61  85 SE6       30.09S
6HR MIN TEMP:  64; 6HR MAX TEMP:  75;

*KERRVILLE     FAIR      64  62  93 SE7       30.08F
6HR MIN TEMP:  63; 6HR MAX TEMP:  76;

*FREDERICKSBRG FAIR      65  60  82 SE6       30.09F
*ROCKSPRINGS   NOT AVBL
*BOERNE STAGE  FAIR      64  61  88 SE5       30.10F
*CASTROVILLE   MOCLDY    68  59  73 E3        30.09S
HONDO          FAIR      70  63  78 E8        30.06F
6HR MIN TEMP:  69; 6HR MAX TEMP:  80;

*UVALDE        FAIR      67  63  87 SE3       30.07S
6HR MIN TEMP:  67; 6HR MAX TEMP:  75;

DEL RIO        MOCLDY    71  64  78 SE12      30.02S
6HR MIN TEMP:  70; 6HR MAX TEMP:  78;

LAUGHLIN AFB   NOT AVBL
CARRIZO SPRGS  FAIR      70  64  83 SE6       30.03F
*EAGLE PASS    NOT AVBL
$$

TXZ173-191>194-202-209-217>225-228-200700-
CENTRAL AND SOUTH CENTRAL TEXAS

CITY           SKY/WX    TMP DP  RH WIND       PRES   REMARKS
GEORGETOWN     FAIR      67  61  81 S3        30.11S
6HR MIN TEMP:  67; 6HR MAX TEMP:  78;

AUSTIN/BERGSTM MOCLDY    67  62  84 CALM      30.08S
6HR MIN TEMP:  62; 6HR MAX TEMP:  75;

AUSTIN/MABRY   FAIR      69  62  78 SE7       30.10S
6HR MIN TEMP:  69; 6HR MAX TEMP:  79;

*AUSTIN/EXEC   MOCLDY    68  63  83 CALM      30.10R
*LAGO VISTA    MOCLDY    69  63  80 SE5       30.10F
6HR MIN TEMP:  69; 6HR MAX TEMP:  73;

SAN MARCOS     FAIR      66  62  87 SE6       30.09S
6HR MIN TEMP:  65; 6HR MAX TEMP:  78;

NEW BRAUNFELS  MOCLDY    66  62  87 CALM      30.07S
6HR MIN TEMP:  65; 6HR MAX TEMP:  80;

RANDOLPH AFB   CLOUDY    66  62  86 CALM      30.08S
6HR MIN TEMP:  65; 6HR MAX TEMP:  77;

PT SAN ANTONIO FAIR      69  63  81 E8        30.06S
6HR MIN TEMP:  69; 6HR MAX TEMP:  77;

SAN ANTONIO    MOCLDY    66  60  81 SE7       30.09S
6HR MIN TEMP:  66; 6HR MAX TEMP:  78;

STINSON FIELD  CLOUDY    71  65  81 E8        30.05F
6HR MIN TEMP:  70; 6HR MAX TEMP:  81;

*LA GRANGE     CLOUDY    71  63  75 E3        30.07S
*GIDDINGS      MOCLDY    68  60  74 CALM      30.10S
6HR MIN TEMP:  68; 6HR MAX TEMP:  78;

*GONZALES      CLOUDY    71  69  91 E5        30.07F
6HR MIN TEMP:  71; 6HR MAX TEMP:  78;

$$

TXZ163>164-176>182-195>201-210>213-226-227-235-200700-
SOUTHEAST TEXAS

CITY           SKY/WX    TMP DP  RH WIND       PRES   REMARKS
COLLEGE STN    FAIR      71  61  70 E3        30.10S
6HR MIN TEMP:  70; 6HR MAX TEMP:  79; 6HR PCP: TRACE;

*BRYAN         FAIR      67  60  78 CALM      30.12F
6HR MIN TEMP:  67; 6HR MAX TEMP:  76;

*CALDWELL      FAIR      68  61  79 E3        30.10F
6HR MIN TEMP:  68; 6HR MAX TEMP:  77;

*CROCKETT        N/A     66  55  68 E3        30.14F
*BRENHAM       MOCLDY    71  64  77 CALM      30.11S
6HR MIN TEMP:  69; 6HR MAX TEMP:  78;

HUNTSVILLE     FAIR      71  56  58 CALM      30.10F
6HR MIN TEMP:  70; 6HR MAX TEMP:  77; 6HR PCP: TRACE;

CONROE         FAIR      69  61  75 SE5       30.12S
6HR MIN TEMP:  67; 6HR MAX TEMP:  74;

HOUSTON BUSH   MOCLDY    69  62  78 E6        30.10F
6HR MIN TEMP:  67; 6HR MAX TEMP:  76;

HOUSTON HOBBY  LGT RAIN  74  66  76 E5        30.08F
6HR MIN TEMP:  74; 6HR MAX TEMP:  77; 6HR PCP: TRACE;

*HOUSTON SW AP LGT RAIN  69  66  90 NE5       30.08F
6HR MIN TEMP:  69; 6HR MAX TEMP:  73;

PEARLAND       LGT RAIN  73  67  81 N6        30.09F
6HR MIN TEMP:  73; 6HR MAX TEMP:  77; 6HR PCP:  0.02;

HOUSTON HOOKS  FAIR      71  61  70 E6        30.10F
6HR MIN TEMP:  71; 6HR MAX TEMP:  77;

ELLINGTON FLD  MOCLDY    72  64  78 NE6       30.09F
SUGAR LAND     LGT RAIN  71  67  87 N8        30.08F
6HR MIN TEMP:  71; 6HR MAX TEMP:  78; 6HR PCP:  0.01;

*HOUSTON EXEC  LGT RAIN  70  66  88 CALM      30.12F
*CLEVELAND MUN FAIR      65  60  85 CALM      30.12F
6HR MIN TEMP:  62; 6HR MAX TEMP:  71;

*WHARTON       LGT RAIN  66  63  89 NW6       30.07F
6HR MIN TEMP:  66; 6HR MAX TEMP:  76; 6HR PCP:  0.18;

*COLUMBUS      FAIR      69  63  80 W5        30.09F
6HR MIN TEMP:  68; 6HR MAX TEMP:  72;

*EAGLE LAKE    RAIN      70  68  93 SE8       30.08F
6HR MIN TEMP:  70; 6HR MAX TEMP:  74; 6HR PCP:  0.03;

$$

TXZ214>216-236>238-200700-
THE UPPER TEXAS COAST

CITY           SKY/WX    TMP DP  RH WIND       PRES   REMARKS
*ORANGE        TSTM      71  66  84 NE6       30.13S
6HR MIN TEMP:  66; 6HR MAX TEMP:  72;

PORT ARTHUR    MOCLDY    72  67  84 E8        30.09F
6HR MIN TEMP:  67; 6HR MAX TEMP:  72; 6HR PCP:  0.02;

GALVESTON      FAIR      80  75  84 E10       30.06F
6HR MIN TEMP:  76; 6HR MAX TEMP:  81; 6HR PCP: TRACE;

ANGLETON       CLOUDY    73  70  90 N9        30.05F
6HR MIN TEMP:  72; 6HR MAX TEMP:  76; 6HR PCP:  0.03;

*BAY CITY      LGT RAIN  71  70  98 SE8G20    30.07R
PALACIOS       MOCLDY    70  69  97 N9        30.03F
6HR MIN TEMP:  68; 6HR MAX TEMP:  74; 6HR PCP:  0.14;

$$

TXZ229>234-239>247-200700-
TEXAS COASTAL BEND AND RIO GRANDE PLAINS

CITY           SKY/WX    TMP DP  RH WIND       PRES   REMARKS
VICTORIA       FAIR      70  67  90 E8        30.05F
6HR MIN TEMP:  67; 6HR MAX TEMP:  75; 6HR PCP: TRACE;

*BEEVILLE      MOCLDY    71  71 100 E5        30.05R
6HR MIN TEMP:  71; 6HR MAX TEMP:  78;

ROCKPORT       FAIR      73  71  93 NE10      30.03F
6HR MIN TEMP:  73; 6HR MAX TEMP:  75; 6HR PCP: TRACE;

*PORT ARANSAS  NOT AVBL
*PORT LAVACA   RAIN      71  68  92 E17       30.03F
6HR MIN TEMP:  70; 6HR MAX TEMP:  73; 6HR PCP:  0.27;

*INGLESIDE     NOT AVBL
CORPUS CHRISTI LGT RAIN  74  73  97 SE10      30.02F
6HR MIN TEMP:  74; 6HR MAX TEMP:  77; 6HR PCP:  0.01;

CORPUS NAS     NOT AVBL
*ROBSTOWN      MOCLDY    73  70  89 E10       30.03F
ALICE          CLOUDY    73  68  84 NE6       30.02F
6HR MIN TEMP:  73; 6HR MAX TEMP:  78;

KINGSVILLE NAS LGT RAIN  75  74  96 E8        30.02S
COTULLA        MOCLDY    71  64  78 SE9       30.04F
6HR MIN TEMP:  70; 6HR MAX TEMP:  82;

*FAITH RANCH   CLOUDY    72  64  78 E8        30.03F
LAREDO         FAIR      72  66  81 E7        30.03S
6HR MIN TEMP:  72; 6HR MAX TEMP:  82;

$$

TXZ248>255-200700-
DEEP SOUTH TEXAS

CITY           SKY/WX    TMP DP  RH WIND       PRES   REMARKS
BROWNSVILLE    FAIR      70  69  97 CALM      30.01F
6HR MIN TEMP:  70; 6HR MAX TEMP:  80;

PORT ISABEL    FAIR      70  69  97 CALM      30.01F
6HR MIN TEMP:  70; 6HR MAX TEMP:  79;

*SOUTH PADRE   NOT AVBL
HARLINGEN      FAIR      69  69 100 E3        30.01F
6HR MIN TEMP:  68; 6HR MAX TEMP:  79;

*HEBBRONVILLE  CLOUDY    69  65  85 CALM      30.05F
6HR MIN TEMP:  48; 6HR MAX TEMP:  98;

MCALLEN



USA.gov is the U.S. government's official web portal to all federal, state and local government web resources and services.